STARLINK-35195 (65606 NORAD) Tracking and Keplerian Element Data

This shows tracking and keplerian element data for the satellite.

Feedback or suggestion? Click here.




ElementValue
Catalog65606
NameSTARLINK-35195
Epoch Orbit589
Epoch Day354.25003472
Epoch Year2025
RAAN60.3399
Inclination97.6048
Eccentricity0.0001914
Argument of Perigee53.6381
Mean Anonmoly38.1195
Mean Motion15.27996621
Decay Rate-0.02409944
L11 65606U 25207Q 25354.25003472 -.02409944 00000+0 -99746-1 0 9990
L22 65606 97.6048 60.3399 0001914 53.6381 38.1195 15.27996621 5897



Live tracking and technical data element details for STARLINK-35195 (NORAD 65606). STARLINK-35195 can be tracked NOW for your location showing map with azimuth and elevation plus other details from your city location.







IsCatalogInMostPopularTable: catalog: 65606, numindb: 2
Update: records affected: 1



GetName: 65606 STARLINK-35195

Hit Count: updated at: Sat, 07 Feb 2026 07:32:04 GMT